Chicago Executive, IL

9:07 PM CST on December 09, 2019 (GMT -0600)
Chicago Executive

Weather History for KPWK - October, 2019

Change the Weather History Date:

Friday, October 4, 2019

  Actual Average Record
Temperature  
Mean Temperature 52 °F 57 °F  
Max Temperature 59 °F 67 °F 87 °F (2005)
Min Temperature 46 °F 46 °F 36 °F (2004)
Degree Days  
Heating Degree Days 12 9  
Month to date heating degree days 19 35  
Since 1 July heating degree days 26 147  
Cooling Degree Days 0 1  
Month to date cooling degree days 13 4  
Year to date cooling degree days 996 782  
Growing Degree Days 2 (Base 50)    
Moisture  
Dew Point 45 °F    
Average Humidity 74    
Maximum Humidity 83    
Minimum Humidity 65    
Precipitation  
Precipitation 0.00 in 0.10 in 0.64 in (2001)
Month to date precipitation 1.27 0.49  
Year to date precipitation 37.96 26.18  
Sea Level Pressure  
Sea Level Pressure 30.37 in    
Wind  
Wind Speed 8 mph ()    
Max Wind Speed 20 mph    
Max Gust Speed 30 mph    
Visibility 10.0 miles    
Events      
T = Trace of Precipitation, MM = Missing Value Source: Averaged Metar Reports

Daily Weather History Graph

Daily Weather History Graph

Search for Another Location

Airport or City:

Astronomy

Oct. 04, 2019 Rise Set
Actual Time 6:51 AM CDT 6:28 PM CDT
Civil Twilight 6:23 AM CDT 6:56 PM CDT
Nautical Twilight 5:51 AM CDT 7:28 PM CDT
Astronomical Twilight 5:18 AM CDT 8:01 PM CDT
Moon 1:28 PM CDT (10/4) 10:51 PM CDT (10/4)
Length of Visible Light 12h 32m
Length of Day
11h 36m
Waxing Crescent, 40% of the Moon is Illuminated
Oct 4
Waxing Crescent
Oct 5
First Quarter
Oct 13
Full
Oct 21
Last Quarter
Oct 27
New

Hourly Weather History & Observations

Time (CDT) Temp. Dew Point Humidity Pressure Visibility Wind Dir Wind Speed Gust Speed Precip Events Conditions
12:52 AM 50.0 °F 41.0 °F 71% 30.29 in 10.0 mi NNW 8.1 mph - N/A   Clear
1:52 AM 48.9 °F 41.0 °F 74% 30.31 in 10.0 mi NNW 8.1 mph - N/A   Clear
2:52 AM 48.0 °F 41.0 °F 77% 30.32 in 10.0 mi NNW 5.8 mph - N/A   Clear
3:52 AM 46.9 °F 41.0 °F 80% 30.33 in 10.0 mi NNW 3.5 mph - N/A   Clear
4:08 AM 48.9 °F 43.0 °F 80% 30.33 in 10.0 mi North 3.5 mph - N/A   Mostly Cloudy
4:52 AM 48.9 °F 43.0 °F 80% 30.35 in 10.0 mi NNW 5.8 mph - N/A   Overcast
5:20 AM 48.0 °F 42.1 °F 80% 30.35 in 10.0 mi North 6.9 mph - N/A   Scattered Clouds
5:52 AM 48.0 °F 43.0 °F 83% 30.35 in 10.0 mi NNW 8.1 mph - N/A   Mostly Cloudy
6:13 AM 46.9 °F 42.1 °F 83% 30.35 in 10.0 mi NNW 4.6 mph - N/A   Scattered Clouds
6:52 AM 48.0 °F 43.0 °F 83% 30.38 in 10.0 mi NW 5.8 mph - N/A   Mostly Cloudy
7:52 AM 50.0 °F 45.0 °F 83% 30.40 in 10.0 mi North 9.2 mph - N/A   Overcast
8:52 AM 53.1 °F 46.9 °F 80% 30.40 in 10.0 mi North 8.1 mph - N/A   Overcast
9:52 AM 55.0 °F 46.9 °F 74% 30.42 in 10.0 mi NNE 12.7 mph 23.0 mph N/A   Overcast
10:47 AM 55.4 °F 46.4 °F 72% 30.42 in 10.0 mi NNE 12.7 mph 20.7 mph N/A   Overcast
10:52 AM 55.9 °F 46.0 °F 69% 30.43 in 10.0 mi NNE 13.8 mph 24.2 mph N/A   Overcast
11:04 AM 55.9 °F 46.0 °F 69% 30.42 in 10.0 mi North 15.0 mph 21.9 mph N/A   Overcast
11:52 AM 57.0 °F 46.0 °F 67% 30.43 in 10.0 mi NNE 13.8 mph 23.0 mph N/A   Overcast
12:11 PM 57.9 °F 46.0 °F 65% 30.42 in 10.0 mi NNE 17.3 mph 25.3 mph N/A   Overcast
12:22 PM 55.9 °F 46.0 °F 69% 30.42 in 10.0 mi NNE 11.5 mph - N/A   Overcast
12:52 PM 57.0 °F 46.0 °F 67% 30.42 in 10.0 mi NNE 15.0 mph 24.2 mph N/A   Overcast
1:52 PM 57.9 °F 46.9 °F 67% 30.41 in 10.0 mi NE 11.5 mph - N/A   Overcast
2:13 PM 57.9 °F 46.9 °F 67% 30.40 in 10.0 mi NNE 13.8 mph 21.9 mph N/A   Overcast
2:52 PM 57.9 °F 46.9 °F 67% 30.39 in 10.0 mi NNE 15.0 mph 25.3 mph N/A   Overcast
3:52 PM 57.0 °F 46.9 °F 69% 30.39 in 10.0 mi North 11.5 mph 23.0 mph N/A   Overcast
4:52 PM 55.9 °F 46.0 °F 69% 30.38 in 10.0 mi NNE 11.5 mph 18.4 mph N/A   Overcast
5:52 PM 55.0 °F 46.0 °F 72% 30.38 in 10.0 mi NNE 8.1 mph - N/A   Overcast
6:52 PM 54.0 °F 46.9 °F 77% 30.37 in 10.0 mi NNE 8.1 mph - N/A   Overcast
7:52 PM 54.0 °F 46.0 °F 75% 30.37 in 10.0 mi NNE 5.8 mph - N/A   Overcast
8:52 PM 54.0 °F 46.9 °F 77% 30.37 in 10.0 mi North 3.5 mph - N/A   Overcast
9:52 PM 54.0 °F 45.0 °F 72% 30.35 in 10.0 mi NE 4.6 mph - N/A   Overcast
10:52 PM 55.0 °F 45.0 °F 69% 30.33 in 10.0 mi ENE 4.6 mph - N/A   Overcast
11:52 PM 55.9 °F 45.0 °F 67% 30.32 in 10.0 mi East 8.1 mph - N/A   Overcast